Location: Bratislava
(0.0000°N, 17.1167°E)
Time: 05:01:56
(UTC+01:00)

YAOGAN 1 - Pass Details

Date: 24 January 2021
Orbit: 618 x 620 km, 97.9° (Epoch: 04 March)

Event Time Altitude Azimuth Distance (km) Brightness Sun altitude
Rises 18:48:10 0° 161° (SSE) 2,893 6.0 -10.5°
Reaches altitude 10° 18:50:23 10° 157° (SSE) 1,985 5.1 -11.0°
Maximum altitude 18:54:37 56° 78° (ENE) 738 2.6 -12.0°
Drops below altitude 10° 18:58:50 10° 0° (N) 1,977 4.9 -13.0°
Sets 19:01:02 0° 356° (N) 2,879 5.8 -13.5°
